Temperature
23 23 24 24 20 20 22 22 23 23 23 23 23 23 22 21 21 20 21 20 20 20 20 20 19 19 19 19 19 19 19 19 18 18 19 19 19 19 19 19 18 18 18 18 18 18 19 18 18
23 23 24 23 20 21 22 22 23 24 23 23 23 22 21 21 21 21 20 20 20 20 20 20 19 19 19 19 19 19 19 18 18 18 19 19 19 18 18 18 18 18 18 18 18 18 18 18 18
23 24 24 20 20 22 22 23 24 23 23 24 22 22 21 21 21 21 21 20 20 20 20 20 19 19 19 19 19 18 18 18 18 18 19 19 18 18 18 18 18 18 18 18 18 19 18 18 18
23 24 22 21 23 23 22 23 23 22 23 24 23 21 21 21 21 21 21 20 20 20 20 19 19 19 19 18 18 19 18 18 18 18 19 18 18 18 18 18 18 18 18 18 18 18 18 17 17
23 23 21 22 22 22 22 24 24 23 23 23 23 21 20 21 21 21 20 20 20 20 19 19 19 19 19 18 18 18 18 18 18 18 18 18 18 18 18 18 18 18 18 18 18 17 17 17 17
22 21 21 22 22 22 22 25 24 23 23 23 22 20 20 21 21 21 20 20 20 20 20 19 19 19 19 19 18 18 18 18 18 18 18 18 18 18 18 18 18 18 18 18 18 17 17 17 17
21 18 20 21 22 23 24 25 25 23 22 23 23 20 21 22 21 20 20 20 20 20 20 19 19 19 19 18 18 18 18 18 18 18 18 18 18 17 17 17 17 18 18 18 17 17 17 17 17
22 18 19 20 21 22 24 25 26 25 23 24 24 21 21 22 21 21 20 20 19 19 19 19 19 19 18 18 18 18 18 18 18 18 18 18 18 18 18 17 18 17 17 17 16 17 16 16 16
22 19 19 20 21 22 24 25 26 25 24 23 24 24 24 23 22 21 20 20 20 20 19 19 19 19 19 18 18 18 18 18 17 17 17 18 18 18 18 17 18 17 16 16 16 16 16 16 16
20 20 20 21 21 22 24 25 26 26 24 23 23 24 25 23 22 21 21 20 20 20 20 20 19 19 19 18 18 18 18 17 17 17 17 17 17 17 17 17 17 17 16 16 16 16 16 16 16
20 21 21 21 22 23 24 25 26 25 24 24 25 25 24 23 22 22 21 21 21 21 20 20 20 19 19 19 18 18 18 17 17 17 17 17 17 17 17 17 17 16 16 16 16 16 16 16 16
19 20 20 21 23 23 23 24 25 25 26 26 26 26 24 23 23 23 23 22 21 21 21 20 20 20 19 19 19 19 19 18 17 17 17 17 17 17 17 17 17 16 16 16 16 16 16 16 16
19 21 21 21 22 22 23 23 24 26 27 27 26 25 25 24 24 24 23 22 22 21 20 21 20 20 20 19 19 18 18 18 17 17 17 17 17 17 17 17 17 16 16 16 16 16 16 16 16
20 20 21 21 22 23 22 23 24 26 27 26 26 26 25 25 24 23 23 22 21 21 20 20 20 20 20 19 19 18 18 18 17 17 17 17 17 17 17 17 17 16 16 16 16 16 16 16 16
20 21 22 22 23 23 23 22 23 26 26 26 26 25 25 24 24 23 23 23 22 22 21 20 20 19 19 19 19 18 18 17 17 17 17 17 17 17 17 17 17 16 16 16 16 16 16 16 16
19 21 21 23 23 23 23 22 23 26 25 25 25 24 24 23 22 22 22 22 22 22 21 20 19 19 19 19 18 18 18 17 17 17 17 17 17 17 17 17 17 16 16 16 16 15 15 16 15
20 20 21 22 24 23 23 22 23 25 25 24 25 25 24 24 23 22 21 21 22 22 22 21 20 19 19 19 18 18 18 17 17 17 17 17 17 17 16 17 17 16 16 16 16 16 15 16 15
19 19 21 21 23 23 23 22 23 25 24 24 24 25 25 24 22 21 21 21 22 22 21 20 20 19 19 19 19 18 17 17 17 17 17 17 17 17 17 17 16 16 16 16 16 16 16 15 15
20 20 20 21 22 22 22 21 22 22 22 22 22 23 21 21 21 22 22 22 22 22 21 20 20 19 19 18 18 18 17 17 17 17 16 16 16 16 17 17 17 17 17 17 17 16 16 15 15
20 20 20 21 21 21 21 21 21 21 21 23 23 22 20 20 22 23 23 23 22 21 20 19 19 19 19 18 18 18 17 17 17 17 16 16 16 16 16 17 17 17 17 17 17 17 16 16 16
21 20 21 20 21 21 21 20 21 22 22 23 22 22 20 21 22 22 22 21 21 20 20 19 18 18 18 18 18 17 17 17 17 17 16 16 16 16 16 17 17 17 17 17 17 17 17 17 16
20 22 22 21 20 19 20 18 20 19 19 19 19 19 20 20 21 22 21 20 20 20 20 19 18 18 18 17 17 17 17 17 17 17 16 16 16 16 16 17 17 17 17 17 17 17 17 17 17
21 22 20 20 19 19 19 18 19 18 19 19 18 19 20 20 21 21 21 20 20 20 19 19 18 17 17 17 17 17 17 16 16 16 16 16 16 16 16 16 16 16 16 17 17 17 17 17 16
22 21 19 16 17 17 18 19 18 18 21 20 18 19 19 20 21 21 20 20 20 19 19 18 18 17 17 17 17 16 16 16 16 15 15 15 15 16 16 16 15 16 16 17 17 17 17 17 16
21 20 18 18 18 18 17 17 19 20 20 19 19 20 20 21 21 21 21 21 20 20 19 19 18 17 17 17 16 16 16 15 15 15 15 15 15 15 15 15 14 14 14 15 17 17 16 16 16
19 18 17 17 17 17 18 17 20 20 20 20 20 21 21 21 21 22 22 21 21 20 19 18 18 17 17 16 16 16 15 15 15 15 15 15 15 15 14 14 14 14 14 14 15 15 15 16 16
17 18 19 18 17 16 18 19 21 20 21 21 20 21 21 22 22 23 22 22 21 20 19 18 18 17 17 17 16 15 15 15 15 15 15 14 14 14 14 14 14 14 13 14 14 15 15 15 15
18 19 15 17 16 16 17 17 18 20 20 20 19 19 21 22 22 23 23 22 21 20 19 18 17 17 17 17 16 15 15 15 15 15 15 15 14 14 14 14 14 13 14 14 14 15 15 15 16
17 17 16 15 15 16 16 17 17 18 18 18 18 20 21 22 22 23 22 22 21 20 19 18 17 17 17 17 16 16 15 15 15 15 15 15 15 15 14 14 14 14 14 14 14 14 15 15 15
15 14 14 15 15 13 14 15 17 17 17 18 19 20 21 21 22 22 22 21 21 20 19 18 17 17 17 16 16 16 15 15 15 15 15 15 15 15 15 15 15 15 14 14 14 15 15 15 16
Wind_Speed
6 4 1 3 6 6 2 2 1 2 2 3 3 6 7 4 2 2 0 4 6 8 9 11 12 11 10 10 10 10 11 12 13 12 12 11 12 12 13 13 14 14 13 11 9 9 12 12 11
3 1 2 5 5 4 3 2 2 0 4 4 5 5 4 3 1 3 3 4 7 7 8 8 11 11 10 11 11 12 12 13 13 13 12 11 11 12 12 13 13 13 12 10 10 10 12 10 12
3 2 4 5 4 3 3 3 2 4 5 2 3 3 2 2 2 3 3 8 8 6 7 8 11 11 10 11 12 13 13 13 13 12 11 11 11 11 11 12 12 12 11 9 10 10 11 10 12
4 5 5 4 3 1 3 4 1 7 2 3 3 3 2 0 4 5 7 10 8 6 6 8 10 10 10 11 12 13 14 13 13 12 11 10 10 11 11 10 11 11 10 9 9 9 10 9 8
4 3 3 3 2 3 4 3 2 6 3 3 3 3 2 2 4 9 9 9 7 5 5 6 9 9 9 10 12 13 12 12 13 13 11 10 9 10 11 9 9 9 10 9 9 9 9 7 9
4 3 3 2 1 3 4 3 0 4 3 3 5 4 1 1 6 7 8 7 6 5 4 5 8 9 10 11 12 12 12 13 13 12 10 10 9 9 9 8 8 8 9 10 10 10 9 12 14
4 4 3 2 3 4 3 2 2 4 2 3 6 4 2 2 4 7 7 7 6 5 4 4 5 8 10 12 12 12 12 12 12 11 10 10 10 10 10 9 8 8 10 12 12 10 9 11 12
5 5 2 2 3 2 5 4 2 6 3 3 3 4 5 6 7 8 8 6 5 4 4 3 4 5 6 7 10 10 11 12 12 12 11 10 9 10 9 9 8 9 11 13 13 12 12 13 12
3 4 1 3 4 3 3 3 2 3 4 3 3 5 5 10 10 8 5 3 3 3 4 4 3 4 5 5 8 9 10 12 12 11 10 9 6 7 8 8 8 9 11 13 13 13 13 13 11
3 3 5 5 5 4 3 1 3 3 2 0 1 1 5 13 12 10 7 6 6 6 5 4 4 4 4 3 4 6 7 9 10 9 8 7 6 5 7 7 9 9 11 12 12 12 11 11 10
2 3 4 5 6 5 3 3 1 2 1 5 7 7 10 11 9 9 9 9 9 6 6 7 6 4 4 3 4 5 5 6 8 8 9 8 7 4 4 4 6 7 9 9 9 10 10 10 10
1 3 3 3 2 3 2 4 4 2 5 6 7 8 11 14 15 14 14 12 10 8 7 7 7 6 6 6 6 6 6 6 7 9 10 9 5 4 4 4 5 5 7 7 7 7 10 11 11
3 2 3 5 6 4 3 4 6 6 7 5 8 11 13 14 15 13 11 11 11 9 8 8 8 9 8 6 3 3 4 6 8 11 11 11 6 4 4 4 4 4 6 6 5 7 9 9 9
3 3 5 6 6 4 4 6 4 8 3 4 9 13 14 16 16 12 11 9 8 8 8 8 9 7 5 5 5 4 4 6 8 9 12 13 10 6 5 4 4 4 5 6 6 7 7 6 7
1 2 5 6 5 5 4 6 9 8 4 6 8 9 9 9 10 13 15 14 13 10 10 9 8 5 4 4 6 5 6 6 5 8 11 13 12 9 6 4 5 6 8 8 8 6 7 5 5
0 1 2 4 4 4 7 7 12 5 5 6 6 8 9 8 9 10 10 11 11 10 12 10 7 6 6 5 5 4 5 5 5 9 11 13 13 12 7 4 5 8 8 7 4 5 4 5 5
2 1 3 5 4 4 5 5 9 2 6 6 7 8 6 3 3 4 5 8 10 12 12 12 8 6 6 5 5 5 5 5 6 9 10 12 13 12 9 5 6 9 5 4 4 3 3 4 5
4 3 4 5 2 2 2 8 12 4 5 7 8 8 7 6 4 0 2 3 5 6 7 9 6 6 5 4 4 4 3 3 4 5 7 10 11 12 9 6 7 8 6 5 4 4 3 3 5
2 3 4 7 7 3 7 8 13 6 6 8 8 8 7 6 2 1 1 1 4 6 7 7 6 5 5 3 3 3 2 2 2 3 3 4 8 10 8 4 6 6 7 7 7 4 4 2 4
3 4 6 9 8 7 8 7 10 7 6 8 10 11 9 6 3 3 3 2 4 7 8 7 6 5 4 3 2 2 2 2 1 2 2 5 8 10 10 7 7 8 6 7 7 6 4 2 4
6 5 6 7 6 2 2 5 6 5 4 3 4 6 8 8 7 5 3 3 5 6 7 5 5 4 4 4 3 2 3 3 2 2 2 3 7 9 8 5 7 8 8 9 9 8 8 6 3
7 6 6 10 7 5 0 5 6 5 8 6 4 8 10 9 7 5 5 6 7 6 6 5 5 5 4 5 5 5 4 4 3 3 4 5 8 7 6 4 5 8 8 9 10 8 5 7 6
5 6 6 7 5 4 1 3 6 3 7 7 7 9 10 9 8 7 8 7 5 3 4 5 5 6 5 5 6 6 4 4 4 3 5 6 5 6 5 1 3 6 7 9 10 8 6 5 6
3 3 3 4 2 3 5 6 6 4 6 5 6 9 9 9 8 8 7 6 5 3 3 4 5 5 5 6 6 6 6 5 5 5 6 6 6 8 9 7 5 2 1 2 6 8 7 5 5
4 1 3 4 1 5 3 2 7 7 6 6 8 10 9 9 9 9 9 9 8 7 6 5 5 4 5 6 6 6 6 7 7 7 7 8 6 6 10 8 5 3 4 1 2 4 4 5 5
5 8 7 5 4 4 1 5 6 5 5 2 5 6 8 10 10 11 12 11 9 8 7 6 6 4 3 5 6 4 6 6 5 5 5 5 5 7 10 9 6 1 1 4 5 5 4 4 6
2 5 8 6 2 2 4 5 7 2 1 2 4 6 9 11 12 12 10 9 9 9 8 8 6 5 4 5 4 4 5 5 5 5 5 4 5 6 8 9 7 3 3 5 5 4 4 5 5
2 2 3 2 5 3 4 4 5 4 4 2 2 5 9 10 11 10 8 8 9 9 8 7 7 7 4 4 3 4 5 5 5 7 7 7 5 5 6 8 9 7 3 2 3 3 4 4 5
4 3 3 3 2 3 2 6 6 4 4 5 6 7 8 8 9 9 7 7 9 8 8 8 7 6 5 5 4 4 4 4 4 5 6 5 5 6 8 10 10 10 9 9 8 5 6 7 6
4 2 2 3 1 2 1 8 5 4 2 3 6 5 8 9 8 9 8 8 8 8 8 8 8 8 8 7 6 6 6 6 5 6 5 5 5 5 5 7 10 10 9 9 9 9 9 7 4
Wind_Direction
315 326 93 64 50 55 26 272 249 265 10 18 59 79 101 94 113 198 248 168 127 136 161 172 166 157 163 157 154 157 150 145 143 136 130 130 132 133 129 127 124 119 114 113 107 97 87 82 83
317 6 51 69 73 61 303 270 258 195 132 121 73 60 66 74 122 138 136 158 130 139 149 158 159 161 162 155 158 159 154 147 140 135 134 138 143 140 138 133 128 119 112 108 105 99 87 79 94
327 62 67 69 93 136 271 293 263 123 149 90 79 58 78 124 150 171 156 136 127 130 140 159 161 158 157 155 158 157 155 148 140 138 140 145 146 141 138 136 130 121 111 100 94 94 91 90 100
18 36 53 83 89 149 239 300 145 139 153 68 104 72 46 21 163 152 126 125 125 125 137 161 157 154 156 153 156 155 154 149 143 140 143 141 135 133 137 137 128 118 107 96 93 99 103 99 104
49 69 79 79 32 310 290 284 170 153 149 131 111 103 43 353 116 129 133 130 131 129 135 152 149 153 150 152 156 155 153 147 144 139 143 137 132 130 137 137 121 114 107 101 98 104 99 93 109
46 59 90 147 233 301 280 259 35 100 126 136 118 105 286 203 143 139 130 122 125 129 127 144 152 155 151 151 155 156 156 154 148 137 140 136 133 128 134 133 115 100 96 96 100 100 86 94 106
101 83 114 210 40 350 325 338 111 111 149 181 143 111 283 242 156 122 111 114 123 120 110 122 146 162 157 154 156 156 158 155 144 140 135 130 133 130 130 125 104 95 97 100 101 91 86 95 97
107 96 108 219 120 277 302 330 123 150 185 144 124 148 204 197 143 114 105 110 117 114 121 127 143 140 135 152 156 158 159 156 153 147 136 134 133 128 131 126 109 103 104 101 95 84 94 95 87
94 82 176 210 157 246 293 357 4 114 126 162 171 180 196 140 133 117 111 121 132 143 143 153 140 127 140 150 163 164 165 162 158 149 144 131 123 128 130 132 123 113 109 102 89 78 94 91 81
77 132 209 201 204 243 293 10 322 47 75 274 261 216 126 139 153 158 162 176 185 185 170 172 167 156 152 150 147 160 170 161 155 151 139 128 125 135 139 143 133 122 111 98 83 77 93 89 76
119 182 197 227 227 248 308 310 245 113 209 211 206 174 147 142 164 176 182 191 190 182 176 172 181 164 161 156 157 162 149 144 146 149 144 146 138 148 134 123 112 102 92 81 75 80 104 99 82
189 217 191 249 259 278 242 319 311 191 235 225 197 160 157 164 182 189 195 195 184 180 178 166 174 167 184 185 182 174 158 159 161 164 164 152 144 151 152 147 128 109 92 76 61 80 112 98 85
205 219 226 262 295 276 302 285 282 269 257 249 155 152 176 187 195 198 206 200 186 182 171 175 175 184 190 185 166 167 158 165 167 165 170 163 159 159 163 162 146 124 105 92 79 106 114 106 97
212 237 264 266 262 272 267 278 263 262 237 177 166 180 190 195 198 191 199 192 190 184 171 171 192 187 174 160 161 170 165 171 170 174 171 173 175 168 167 165 151 143 120 106 111 127 126 121 114
220 274 288 259 232 226 187 266 234 230 172 199 198 200 207 219 199 201 204 200 194 183 170 177 190 164 161 163 163 164 171 175 176 181 178 176 186 183 174 175 155 158 141 124 116 114 118 116 117
346 46 286 258 208 224 171 241 260 222 167 216 222 221 222 216 208 213 214 212 195 177 174 175 185 157 155 155 152 148 159 166 183 185 181 179 196 197 179 178 163 158 152 142 125 129 123 128 132
25 220 257 277 223 162 165 255 279 201 175 194 218 231 228 178 184 208 227 218 195 187 180 172 167 150 153 142 146 149 154 159 182 187 186 184 196 202 185 186 165 168 165 156 148 125 122 141 142
213 203 232 253 275 117 198 259 277 270 203 206 203 211 203 179 173 226 304 242 188 174 165 157 150 139 117 107 114 107 136 164 171 192 199 180 187 200 192 195 165 171 174 172 167 133 103 129 138
243 225 259 271 270 199 243 252 274 288 229 203 195 201 217 188 198 259 347 333 171 144 135 147 163 146 122 109 105 119 171 186 194 204 228 181 187 199 195 192 164 169 180 180 160 126 115 120 139
228 266 279 284 267 203 241 253 269 264 237 209 198 202 189 194 221 301 339 333 190 171 159 154 157 152 141 130 120 115 121 143 196 131 164 210 206 203 205 186 176 173 164 154 155 145 123 156 184
220 216 248 263 309 277 266 293 278 281 279 258 206 179 163 191 202 223 239 241 219 200 194 181 171 165 160 139 112 86 90 102 131 159 150 230 232 211 207 193 181 171 171 174 173 161 156 157 190
249 256 282 286 287 284 5 279 271 280 293 281 210 169 170 193 200 207 221 227 212 194 183 185 199 203 181 156 164 174 164 172 178 146 137 182 215 210 209 216 201 189 182 180 179 166 160 148 164
252 305 306 283 240 253 246 244 274 327 282 257 211 188 182 193 189 203 217 230 228 204 183 184 206 217 197 189 194 183 164 154 153 150 145 144 146 131 110 78 199 207 198 185 172 166 162 148 160
292 321 22 41 68 258 235 229 274 234 245 261 207 193 183 185 195 213 223 230 235 226 206 186 192 204 196 202 207 191 179 164 162 164 158 153 138 120 102 76 74 54 356 204 170 163 163 151 158
163 217 323 326 310 256 287 208 252 249 250 237 208 196 182 182 198 213 215 216 218 212 208 200 200 201 187 195 205 200 190 182 188 177 175 174 165 139 117 101 70 47 60 81 153 152 173 175 182
208 166 187 217 226 279 272 232 252 265 299 267 180 165 174 198 209 216 214 208 209 209 204 207 212 207 194 209 216 194 193 191 187 175 171 175 167 148 135 128 114 115 181 187 176 173 191 201 204
200 192 200 170 172 250 260 281 297 311 305 56 110 153 196 210 216 222 213 201 200 206 208 205 215 226 199 209 220 201 197 196 184 174 173 175 167 161 150 139 131 187 233 201 174 148 183 205 216
227 149 113 158 175 225 273 267 251 303 272 289 254 226 230 228 232 235 219 203 204 203 198 198 210 233 225 213 223 214 204 205 185 174 187 198 188 167 166 154 164 175 188 213 232 159 181 211 226
324 354 69 118 130 170 239 262 222 248 302 289 292 285 273 256 244 250 240 217 209 194 189 191 201 216 222 223 227 223 219 212 190 182 199 201 197 193 188 181 181 185 194 205 213 208 219 218 212
179 194 145 158 176 69 267 272 257 249 297 286 285 274 274 267 252 247 235 212 208 201 198 191 195 211 214 202 213 218 198 190 192 193 194 194 209 208 189 179 176 182 198 203 199 202 226 231 223
Height
1491 1490 1490 1492 1498 1509 1513 1507 1501 1498 1497 1496 1496 1496 1498 1502 1506 1512 1506 1504 1504 1505 1507 1510 1513 1514 1516 1517 1519 1520 1522 1524 1526 1527 1529 1530 1530 1531 1532 1533 1534 1535 1536 1536 1536 1535 1534 1535 1536
1491 1490 1492 1493 1509 1522 1516 1504 1500 1498 1498 1497 1497 1499 1499 1501 1502 1503 1503 1504 1505 1506 1508 1509 1512 1514 1516 1518 1520 1521 1522 1524 1526 1527 1529 1530 1530 1532 1533 1533 1534 1535 1536 1536 1536 1536 1535 1536 1537
1491 1491 1493 1499 1514 1518 1514 1501 1498 1497 1498 1498 1499 1500 1501 1502 1502 1502 1503 1505 1506 1507 1508 1510 1512 1514 1516 1518 1520 1521 1524 1525 1526 1528 1529 1530 1531 1533 1534 1535 1535 1536 1536 1536 1536 1537 1537 1539 1539
1494 1495 1497 1505 1511 1507 1504 1499 1496 1498 1498 1498 1499 1501 1502 1503 1502 1503 1504 1505 1506 1508 1509 1511 1512 1514 1517 1518 1520 1522 1524 1525 1527 1528 1529 1531 1532 1533 1535 1536 1536 1536 1537 1537 1537 1538 1539 1541 1541
1495 1496 1503 1508 1508 1504 1498 1496 1496 1497 1498 1498 1500 1502 1503 1503 1503 1503 1504 1505 1507 1508 1509 1511 1513 1515 1517 1519 1520 1522 1525 1526 1527 1529 1530 1532 1533 1535 1535 1538 1538 1537 1537 1538 1539 1540 1541 1542 1542
1496 1498 1508 1512 1507 1501 1497 1496 1496 1497 1498 1499 1501 1502 1503 1503 1503 1503 1504 1506 1507 1509 1510 1512 1513 1515 1517 1519 1521 1522 1524 1526 1527 1529 1531 1533 1533 1535 1537 1538 1539 1539 1538 1538 1539 1541 1543 1543 1544
1498 1504 1512 1509 1504 1502 1497 1496 1496 1497 1499 1499 1499 1502 1503 1502 1503 1503 1505 1506 1508 1509 1510 1512 1513 1515 1517 1519 1520 1522 1524 1526 1528 1529 1531 1532 1534 1534 1537 1538 1540 1540 1540 1539 1540 1542 1545 1545 1545
1496 1504 1513 1511 1508 1506 1497 1494 1494 1495 1497 1498 1499 1500 1501 1501 1502 1504 1505 1506 1508 1509 1510 1511 1513 1515 1517 1520 1522 1523 1525 1527 1529 1530 1532 1533 1535 1536 1538 1539 1541 1542 1542 1542 1543 1545 1546 1546 1547
1497 1507 1513 1510 1508 1503 1496 1496 1495 1495 1495 1496 1497 1498 1498 1499 1501 1503 1505 1506 1507 1508 1510 1511 1513 1515 1517 1519 1522 1524 1526 1528 1530 1531 1532 1534 1536 1537 1538 1540 1542 1544 1544 1545 1546 1547 1548 1548 1548
1498 1508 1506 1501 1500 1498 1496 1496 1496 1495 1496 1496 1497 1497 1497 1498 1499 1501 1503 1505 1507 1509 1510 1511 1513 1516 1518 1520 1521 1523 1525 1527 1530 1531 1533 1535 1537 1539 1539 1541 1543 1544 1546 1547 1548 1548 1549 1550 1550
1498 1501 1499 1497 1496 1495 1495 1496 1495 1495 1495 1494 1494 1495 1495 1498 1500 1502 1503 1505 1506 1508 1509 1511 1513 1515 1517 1519 1521 1523 1524 1527 1530 1532 1533 1535 1537 1539 1540 1542 1543 1545 1547 1548 1550 1550 1551 1551 1551
1499 1497 1498 1497 1496 1496 1494 1495 1495 1493 1494 1493 1493 1494 1495 1496 1498 1499 1500 1502 1504 1506 1509 1511 1512 1513 1515 1517 1519 1521 1523 1526 1528 1531 1533 1535 1537 1539 1540 1542 1544 1547 1548 1550 1551 1552 1552 1552 1552
1498 1497 1496 1495 1496 1495 1494 1494 1495 1491 1491 1491 1491 1493 1494 1495 1496 1497 1499 1500 1502 1504 1507 1509 1511 1512 1513 1515 1518 1520 1522 1525 1526 1528 1531 1534 1536 1538 1539 1542 1544 1547 1549 1550 1552 1553 1553 1553 1554
1497 1496 1494 1493 1493 1492 1492 1493 1494 1489 1489 1489 1490 1490 1491 1492 1493 1495 1497 1499 1502 1504 1506 1508 1510 1511 1513 1514 1516 1519 1521 1523 1525 1527 1529 1532 1535 1538 1540 1542 1545 1548 1550 1551 1552 1554 1554 1554 1555
1496 1496 1493 1490 1489 1488 1490 1494 1489 1486 1487 1487 1488 1488 1489 1490 1492 1494 1495 1497 1500 1501 1504 1506 1509 1511 1512 1513 1515 1517 1519 1521 1523 1526 1528 1531 1534 1537 1540 1542 1544 1547 1550 1551 1553 1554 1555 1555 1556
1497 1499 1501 1491 1487 1486 1493 1497 1482 1483 1484 1485 1486 1487 1487 1488 1490 1492 1494 1496 1498 1500 1501 1504 1507 1509 1510 1511 1514 1516 1518 1519 1521 1524 1527 1529 1532 1535 1538 1541 1544 1547 1549 1551 1553 1554 1554 1555 1557
1503 1508 1504 1495 1486 1484 1490 1492 1481 1480 1481 1483 1484 1484 1484 1484 1487 1488 1491 1494 1496 1496 1497 1500 1503 1505 1506 1508 1512 1514 1516 1517 1519 1521 1524 1527 1530 1533 1536 1539 1543 1546 1548 1550 1552 1554 1555 1555 1557
1509 1507 1503 1500 1488 1486 1488 1489 1480 1478 1480 1480 1480 1480 1481 1482 1484 1486 1489 1491 1492 1492 1493 1495 1499 1503 1506 1508 1510 1511 1513 1515 1517 1518 1521 1524 1528 1532 1534 1537 1540 1543 1544 1547 1550 1553 1554 1556 1557
1500 1502 1503 1496 1485 1488 1489 1488 1480 1476 1477 1477 1477 1477 1479 1481 1484 1486 1487 1488 1489 1489 1489 1491 1494 1501 1504 1506 1507 1508 1511 1514 1516 1518 1520 1524 1527 1529 1532 1534 1537 1539 1541 1544 1547 1550 1553 1555 1556
1500 1504 1503 1493 1483 1487 1486 1485 1477 1474 1473 1472 1473 1474 1477 1481 1483 1484 1485 1485 1486 1487 1488 1489 1492 1497 1499 1502 1504 1505 1508 1510 1513 1514 1516 1520 1522 1524 1527 1530 1533 1536 1538 1541 1544 1547 1549 1552 1555
1496 1499 1497 1496 1485 1483 1485 1488 1480 1472 1471 1470 1471 1472 1475 1480 1481 1482 1483 1483 1485 1486 1487 1488 1491 1495 1497 1499 1501 1502 1504 1506 1509 1510 1511 1514 1517 1519 1521 1525 1529 1532 1535 1537 1540 1544 1547 1549 1552
1498 1487 1488 1489 1495 1499 1492 1505 1486 1477 1474 1469 1469 1469 1472 1477 1479 1481 1482 1483 1484 1485 1485 1486 1488 1491 1494 1497 1498 1499 1501 1503 1504 1505 1506 1508 1511 1514 1516 1521 1525 1528 1531 1534 1537 1541 1544 1547 1550
1490 1485 1488 1489 1494 1498 1495 1502 1489 1478 1475 1468 1467 1467 1470 1475 1477 1480 1481 1482 1484 1484 1484 1484 1486 1488 1490 1492 1494 1495 1496 1498 1499 1500 1501 1503 1505 1507 1509 1514 1518 1523 1527 1530 1534 1538 1541 1544 1547
1483 1486 1490 1497 1502 1511 1498 1499 1495 1480 1471 1467 1465 1466 1469 1474 1477 1478 1479 1480 1482 1483 1484 1484 1485 1487 1487 1489 1491 1492 1493 1494 1494 1495 1496 1497 1498 1500 1502 1507 1511 1515 1520 1525 1528 1533 1537 1541 1544
1484 1495 1511 1511 1512 1510 1499 1501 1490 1467 1464 1464 1464 1465 1468 1472 1474 1475 1476 1477 1479 1480 1482 1483 1485 1486 1486 1487 1489 1490 1490 1490 1491 1492 1493 1493 1494 1494 1496 1502 1508 1511 1515 1521 1524 1529 1533 1537 1541
1485 1493 1511 1519 1518 1512 1498 1500 1479 1463 1460 1460 1461 1464 1468 1470 1471 1472 1473 1475 1477 1479 1480 1481 1483 1484 1485 1486 1487 1487 1487 1487 1487 1488 1489 1491 1491 1490 1491 1496 1502 1509 1514 1518 1521 1525 1529 1533 1537
1490 1489 1484 1499 1508 1514 1500 1487 1470 1462 1461 1462 1462 1464 1466 1467 1468 1470 1471 1473 1476 1478 1479 1480 1481 1482 1482 1483 1484 1485 1485 1485 1485 1486 1487 1488 1489 1489 1490 1494 1498 1505 1509 1513 1517 1521 1526 1530 1534
1480 1481 1498 1497 1513 1519 1504 1500 1488 1471 1467 1464 1464 1465 1465 1465 1467 1468 1469 1472 1473 1474 1475 1477 1479 1480 1481 1481 1483 1484 1484 1484 1484 1485 1486 1488 1489 1490 1491 1492 1495 1501 1507 1510 1515 1521 1523 1527 1530
1488 1487 1491 1499 1505 1513 1515 1503 1478 1473 1470 1468 1466 1465 1464 1463 1464 1466 1467 1470 1471 1471 1473 1475 1477 1478 1479 1479 1481 1482 1483 1483 1484 1485 1486 1488 1490 1491 1492 1493 1496 1500 1506 1511 1515 1520 1523 1527 1528
1490 1494 1497 1505 1508 1512 1515 1504 1469 1467 1466 1466 1464 1463 1463 1462 1462 1464 1465 1467 1468 1469 1471 1473 1475 1476 1477 1477 1478 1479 1481 1482 1483 1485 1486 1488 1491 1492 1494 1495 1497 1501 1505 1509 1513 1518 1521 1523 1524